Location: Ellingshausen
(50.5460°N, 10.4723°E)
Time: 12:41:07
(UTC+00:00)

Cosmos 676 Rocket - Pass Details

Date: 19 April 2026
Orbit: 750 x 779 km, 74.0° (Epoch: 19 May)

Event Time Altitude Azimuth Distance (km) Brightness Sun altitude
Rises 23:06:23 0° 333° (NNW) 3,265 8.2 -28.0°
Reaches altitude 10° 23:08:48 10° 329° (NNW) 2,330 7.2 -28.0°
Enters shadow 23:13:14 51° 285° (WNW) 965 4.5 -28.0°
